Regional Weather Roundup
Issued by NWS Sterling, VA

Home | Current Version | Previous Version | Text Only | Print | Product List | Glossary Off
Versions: 1 2 3 4 5 6 7 8 9 10 11 12 13 14 15 16 17 18 19 20 21 22 23 24 25 26 27

000
ASUS41 KLWX 280810
RWRLWX

REGIONAL WEATHER ROUNDUP
NATIONAL WEATHER SERVICE BALTIMORE MD/WASHINGTON DC
400 AM EDT SUN AUG 28 2016

Note: "FAIR" indicates few or no clouds below 12,000 feet
with no significant weather and/or obstructions to visibility.
 TC=TEMPERATURE CELSIUS

 * =Non NWS site. Station does not report precipitation (e.g. rain,
    snow, etc.), thunder, or fog.

DCZ001-MDZ009-015-VAZ040>042-051-053>054-280900-
WASHINGTON METRO

CITY           SKY/WX    TMP DP  RH WIND       PRES   REMARKS
WASHINGTON NAT PTCLDY    76  72  87 CALM      30.20R
DULLES         PTCLDY    67  64  90 NW3       30.21R
ANDREWS AFB    CLEAR     70  68  95 E3        30.19S
FT BELVOIR     CLEAR     68  67  95 CALM      30.19R
COLLEGE PARK*  CLEAR     68  66  94 CALM      30.20R
LEESBURG*      CLEAR     68  68 100 NW6       30.23R
MANASSAS*      CLEAR     66  66 100 CALM      30.20R
GAITHERSBURG*  CLEAR     66  63  88 CALM      30.25S

$$

MDZ006>007-011-014-280900-
BALTIMORE METRO

CITY           SKY/WX    TMP DP  RH WIND       PRES   REMARKS
BWI AIRPORT    PTCLDY    73  69  87 E6        30.19S
MD SCIENCE CTR   N/A     76  68  76 MISG      30.20S
MARTIN STATE   CLEAR     72  72 100 CALM      30.21S
ANNAPOLIS      CLEAR     78  73  84 SE10      30.18F
FORT MEADE*    CLEAR    N/A N/A N/A CALM      30.22S

$$

MDZ012-015-019>023-280900-
MARYLAND EASTERN SHORE

CITY           SKY/WX    TMP DP  RH WIND       PRES   REMARKS
OCEAN CITY     CLEAR     76  71  85 E7        30.17F
SALISBURY      PTCLDY    69  68  96 CALM      30.17F
BAY BRIDGE AP* CLEAR     73  70  88 E3        30.19S
CAMBRIDGE*     CLEAR     68  68 100 CALM      30.18S
EASTON*        CLEAR     72  72 100 CALM      30.22S

$$

MDZ017>025-280900-
SOUTHERN MARYLAND

CITY           SKY/WX    TMP DP  RH WIND       PRES   REMARKS
PATUXENT RIVER PTCLDY    75  72  90 E8        30.17S
ST INIGOES     PTCLDY    75  72  90 NE3       30.17R
LEONARDTOWN*   MOCLDY    73  70  88 CALM      30.19S

$$

MDZ003>005-280900-
NORTH CENTRAL MARYLAND

CITY           SKY/WX    TMP DP  RH WIND       PRES   REMARKS
FREDERICK*     CLEAR     66  66 100 SE3       30.24R FOG
HAGERSTOWN APT CLEAR     73  64  73 E5        30.21R

$$

MDZ501>502-280900-
WESTERN MARYLAND

CITY           SKY/WX    TMP DP  RH WIND       PRES   REMARKS
OAKLAND*       CLEAR     66  64  94 SE7       30.29R
CUMBERLAND*    CLEAR     70  70 100 CALM      30.24R

$$

VAZ025>031-280900-
SHENANDOAH VALLEY

CITY           SKY/WX    TMP DP  RH WIND       PRES   REMARKS
WINCHESTER*    CLEAR     66  64  94 CALM      30.21S
FRONT ROYAL*   FAIR      66  66 100 CALM      30.20R
LURAY*         FAIR     N/A N/A N/A CALM      30.22R FOG
NEW MARKET*    PTSUNNY  N/A N/A N/A CALM      30.21R
STAUNTON*      CLOUDY    65  64  97 CALM      30.25S
WAYNESBORO*    FAIR      67  63  87 CALM      30.25R

$$

WVZ021-048>050-054>055-280900-
EASTERN WEST VIRGINIA PANHANDLE

CITY           SKY/WX    TMP DP  RH WIND       PRES   REMARKS
MARTINSBURG    CLEAR     67  65  93 SE3       30.20R
PETERSBURG*    CLEAR     68  67  98 CALM      30.21R FOG

$$

VAZ036>039-050-280900-
CENTRAL FOOTHILLS

CITY           SKY/WX    TMP DP  RH WIND       PRES   REMARKS
CHARLOTTESVILL CLEAR     69  67  93 CALM      30.21R
CULPEPER*      FOG       67  67 100 CALM      30.21S VSB 1/2
ORANGE*          N/A     66  66 100 CALM      30.22S
GORDONSVILLE*  FAIR      66  66 100 CALM      30.20R
WARRENTON*     FOG       63  59  86 CALM      30.20R VSB 3/4

$$

VAZ055>057-280900-
NORTH AND CENTRAL PIEDMONT

CITY           SKY/WX    TMP DP  RH WIND       PRES   REMARKS
FREDERICKSBRG* CLEAR     68  68 100 CALM      30.18S
STAFFORD*      CLEAR     65  64  97 CALM      30.23S FOG

$$

NCZ024-NYZ072-PAZ021-071-VAZ022-071-280900-
OTHER REGIONAL OBSERVATIONS

CITY           SKY/WX    TMP DP  RH WIND       PRES   REMARKS
NEW YORK CITY  CLEAR     73  64  73 CALM      30.25R
PHILADELPHIA   PTCLDY    71  68  90 CALM      30.21S
PITTSBURGH     PTCLDY    74  68  81 CALM      30.16S
ROANOKE        PTCLDY    76  66  71 SE3       30.24F
RICHMOND       PTCLDY    69  66  90 N3        30.17S
RALEIGH        PTCLDY    73  70  90 NE5       30.16F

$$

ANZ530>537-280900-
MARINE OBSERVATIONS

STATION/POSITION TIME  TEMP    WIND        PRES
                       AIR SEA DIR/SP/G
                 (UTC) (F)     (DEG/KT/KT) (MB)
THOMAS PT LIGHT  0800   75 83  120/  8/  9 1023.6S
BALT KEY BRIDGE  0748   76     100/ 10/ 11 1022.3R
COVE POINT       0748   75     140/ 11/ 14 1022.3F
LEWISETTA        0748   79 84  120/ 13/ 16 1021.1R
SOLOMONS ISLAND  0748   77 85  100/ 11/ 13   N/A
PINEY POINT      0748          100/  7/  9   N/A

$$





USA.gov is the U.S. government's official web portal to all federal, state and local government web resources and services.